Weather History for Hayward, WI

Change the Weather History Date:

Monday, October 24, 2011

  Actual Average Record
Temperature  
Mean Temperature 40 °F -  
Max Temperature 54 °F 65 °F 70 °F (1967)
Min Temperature 26 °F 43 °F 15 °F (2002)
Degree Days  
Heating Degree Days 26    
Moisture  
Dew Point 33 °F    
Average Humidity 87    
Maximum Humidity 100    
Minimum Humidity 45    
Precipitation  
Precipitation 0.00 in - - ()
Sea Level Pressure  
Sea Level Pressure 29.98 in    
Wind  
Wind Speed 1 mph (SW)    
Max Wind Speed 7 mph    
Max Gust Speed -    
Visibility 4 miles    
Events Fog    
Averages and records for this station are not official NWS values.
T = Trace of Precipitation, MM = Missing Value Source: NWS Daily Summary

Daily Weather History Graph

Daily Weather History Graph

Search for Another Location

Airport:

Trip Planner

Search our weather history database for the weather conditions in past years. The results will help you decide how hot, cold, wet, or windy it might be!

Date:

Astronomy

Oct. 24, 2011 Rise Set
Actual Time 7:34 AM CDT 6:04 PM CDT
Civil Twilight 7:04 AM CDT 6:35 PM CDT
Nautical Twilight 6:29 AM CDT 7:10 PM CDT
Astronomical Twilight 5:54 AM CDT 7:44 PM CDT
Moon 4:47 AM CDT (10/24) 4:34 PM CDT (10/24)
Length of Visible Light 11h 31m
Length of Day
10h 29m
Waning Crescent, 7% of the Moon is Illuminated
Oct 24
Waning Crescent
Oct 26
New
Nov 2
First Quarter
Nov 10
Full
Nov 18
Last Quarter

Hourly Weather History & Observations

Time (CDT) Temp. Windchill Dew Point Humidity Pressure Visibility Wind Dir Wind Speed Gust Speed Precip Events Conditions
12:00 AM 37.4 °F 34.9 °F 35.6 °F 93% 29.86 in 0.5 mi South 3.5 mph - N/A Fog Fog
12:27 AM 35.6 °F 32.8 °F 35.6 °F 100% 29.86 in 1.2 mi South 3.5 mph - N/A   Clear
12:34 AM 35.6 °F 32.8 °F 35.6 °F 100% 29.86 in 0.8 mi South 3.5 mph - N/A   Clear
12:53 AM 35.1 °F - 35.1 °F 100% 29.89 in 0.5 mi Calm Calm - N/A Fog Fog
1:53 AM 32.0 °F - 30.9 °F 96% 29.90 in 0.5 mi Calm Calm - N/A Fog Fog
2:24 AM 30.2 °F - 30.2 °F 100% 29.88 in 0.2 mi Calm Calm - N/A Fog Light Freezing Fog
2:39 AM 32.0 °F - 30.2 °F 93% 29.88 in 0.2 mi Calm Calm - N/A Fog Fog
2:53 AM 30.9 °F - 30.9 °F 100% 29.92 in 0.2 mi Calm Calm - N/A Fog Light Freezing Fog
3:53 AM 28.9 °F - 28.0 °F 96% 29.93 in 0.2 mi Calm Calm - N/A Fog Light Freezing Fog
4:53 AM 28.9 °F - 28.0 °F 96% 29.94 in 0.2 mi Calm Calm - N/A Fog Light Freezing Fog
5:48 AM 28.4 °F - 26.6 °F 93% 29.93 in 1.2 mi Calm Calm - N/A   Scattered Clouds
5:51 AM 28.4 °F - 26.6 °F 93% 29.93 in 3.0 mi Calm Calm - N/A   Scattered Clouds
5:53 AM 28.0 °F - 27.0 °F 96% 29.97 in 5.0 mi Calm Calm - N/A   Scattered Clouds
6:11 AM 26.6 °F - 26.6 °F 100% 29.93 in 1.0 mi Calm Calm - N/A   Mist
6:18 AM 28.4 °F - 26.6 °F 93% 29.93 in 0.2 mi Calm Calm - N/A Fog Light Freezing Fog
6:53 AM 28.0 °F - 27.0 °F 96% 29.99 in 0.5 mi Calm Calm - N/A Fog Light Freezing Fog
7:53 AM 28.0 °F - 27.0 °F 96% 30.01 in 0.2 mi Calm Calm - N/A Fog Light Freezing Fog
8:53 AM 32.0 °F - 32.0 °F 100% 30.03 in 1.8 mi Calm Calm - N/A   Mostly Cloudy
8:58 AM 32.0 °F - 32.0 °F 100% 29.99 in 2.0 mi Calm Calm - N/A   Scattered Clouds
9:16 AM 33.8 °F - 33.8 °F 100% 29.99 in 1.0 mi Calm Calm - N/A   Mist
9:23 AM 35.6 °F - 35.6 °F 100% 30.00 in 0.5 mi Calm Calm - N/A Fog Fog
9:27 AM 37.4 °F - 37.4 °F 100% 30.00 in 1.2 mi Calm Calm - N/A   Partly Cloudy
9:30 AM 37.4 °F - 37.4 °F 100% 30.00 in 3.0 mi Calm Calm - N/A   Partly Cloudy
9:53 AM 39.0 °F - 37.9 °F 96% 30.04 in 10.0 mi Calm Calm - N/A   Clear
10:53 AM 45.0 °F - 37.9 °F 76% 30.04 in 10.0 mi Calm Calm - N/A   Clear
11:53 AM 46.9 °F - 36.0 °F 66% 30.04 in 10.0 mi Variable 4.6 mph - N/A   Clear
12:53 PM 48.9 °F - 35.1 °F 59% 30.05 in 10.0 mi West 6.9 mph - N/A   Overcast
1:53 PM 51.1 °F - 34.0 °F 52% 30.04 in 10.0 mi Variable 4.6 mph - N/A   Overcast
2:53 PM 52.0 °F - 33.1 °F 49% 30.03 in 10.0 mi Calm Calm - N/A   Mostly Cloudy
3:53 PM 52.0 °F - 32.0 °F 47% 30.03 in 10.0 mi Calm Calm - N/A   Clear
4:53 PM 53.1 °F - 32.0 °F 45% 30.04 in 10.0 mi WSW 3.5 mph - N/A   Clear
5:53 PM 46.9 °F - 37.9 °F 71% 30.06 in 10.0 mi Calm Calm - N/A   Clear
7:53 PM 42.1 °F - 37.0 °F 82% 30.07 in 10.0 mi Calm Calm - N/A   Clear
8:53 PM 41.0 °F 39.0 °F 37.0 °F 86% 30.08 in 10.0 mi NNE 3.5 mph - N/A   Mostly Cloudy
10:53 PM 42.1 °F - 37.9 °F 85% 30.09 in 10.0 mi Calm Calm - 0.00 in   Overcast
11:53 PM 42.1 °F 40.2 °F 37.9 °F 85% 30.09 in 10.0 mi NNW 3.5 mph - N/A   Overcast